Wind_Speed
23 16 20 16 10 12 13 22 20 17 9 13 22 20 4 12 10 8 2 5 8 11 13 17 15 16 18 18 18 17 16 13 16 16 11 9 7 4 3 4 5 8 10 10
23 25 25 15 10 19 9 12 19 16 13 14 9 12 3 5 10 5 8 2 7 12 14 16 17 18 17 18 18 18 17 16 15 15 11 9 6 5 3 2 2 3 7 8
29 35 25 18 14 20 19 13 13 17 17 17 11 17 15 7 5 6 5 3 6 9 15 16 17 18 20 20 21 21 19 17 16 15 13 10 9 9 6 2 2 4 5 8
29 32 29 23 21 16 21 6 10 15 16 19 23 9 26 16 12 14 9 2 5 14 15 15 17 19 20 20 20 20 19 18 17 16 15 14 12 9 6 2 2 4 7 11
38 32 34 29 28 30 32 14 15 16 27 22 22 20 20 21 25 19 15 5 4 10 14 16 18 19 21 20 20 20 20 21 20 17 14 12 10 7 4 1 2 5 7 11
36 25 28 35 29 25 31 23 26 17 23 16 33 29 15 32 18 16 14 9 8 13 17 18 17 19 19 19 19 21 21 20 19 17 14 12 9 6 3 1 1 5 8 12
32 37 33 30 30 28 26 29 14 9 7 9 24 29 26 25 19 12 16 13 14 16 17 21 23 20 21 19 23 22 22 21 18 15 12 10 7 5 2 1 3 5 8 11
35 28 43 36 36 31 28 32 18 7 5 9 15 10 26 29 21 17 19 13 18 17 18 24 23 21 22 19 21 21 19 17 14 11 9 7 5 3 2 4 8 10 11 13
34 32 46 44 36 32 28 26 21 30 3 2 9 13 16 19 30 26 22 16 17 18 20 23 22 22 21 19 18 17 16 13 9 7 5 3 2 2 3 6 9 11 13 16
18 30 35 48 37 37 35 24 23 19 3 2 3 10 3 30 34 32 29 23 16 18 15 24 25 21 20 18 16 15 13 10 7 5 3 2 2 5 7 9 11 12 13 15
37 21 37 37 37 41 35 36 27 27 16 8 2 7 14 17 34 33 32 26 19 17 21 18 21 19 19 19 18 15 12 9 7 7 5 2 3 6 8 9 9 10 10 16
50 23 32 37 36 39 35 32 30 22 8 6 14 19 10 10 27 34 27 29 23 16 19 20 18 17 14 12 13 14 15 13 10 9 8 6 8 10 10 9 7 7 8 15
44 50 19 33 30 34 36 32 31 29 23 20 9 22 25 28 25 34 30 28 25 20 20 21 20 15 9 7 8 11 13 15 15 12 9 11 12 14 12 8 7 7 6 14
44 40 47 27 31 33 31 34 33 34 26 25 28 28 23 19 27 38 32 31 26 23 26 24 21 13 9 11 10 9 11 12 15 13 15 16 17 15 14 11 11 8 7 13
44 52 45 52 34 22 26 33 35 34 33 28 32 31 25 17 23 35 30 28 27 25 25 28 26 20 16 17 16 13 12 13 13 15 16 16 15 15 16 18 14 8 6 13
45 52 48 44 50 40 35 28 39 39 36 34 34 35 28 12 25 30 30 28 23 26 23 24 27 24 22 21 20 17 14 14 14 16 17 17 18 18 21 21 15 10 8 12
46 54 48 41 45 42 31 32 24 44 44 38 39 40 30 27 32 25 23 21 23 19 17 25 28 27 25 24 25 22 18 18 18 19 20 20 21 22 24 23 16 12 10 13
24 51 49 38 37 14 39 41 34 35 48 37 40 45 34 27 28 27 14 28 23 20 19 22 22 23 23 23 25 25 22 23 22 24 25 25 24 24 25 24 19 15 12 13
27 39 31 34 37 24 35 19 22 27 53 37 38 38 32 23 23 33 22 27 24 24 26 22 18 17 15 18 22 24 25 22 22 26 28 28 26 26 27 24 22 18 14 13
26 44 42 31 31 16 38 37 22 10 23 43 39 38 27 32 32 30 28 28 29 28 28 24 20 19 13 11 13 14 17 22 24 27 29 27 27 29 28 25 23 21 16 15
20 47 47 37 38 20 33 41 25 23 21 14 39 40 40 32 26 21 21 36 33 30 31 28 21 17 13 14 17 19 19 20 23 26 26 27 28 29 28 26 24 23 19 17
22 34 35 34 30 12 29 38 33 30 28 8 7 34 32 39 37 33 32 26 34 32 32 28 23 17 11 9 12 18 20 20 19 20 23 25 27 27 26 24 24 21 20 18
13 20 36 37 37 22 34 28 25 29 32 28 16 15 17 21 25 19 25 28 35 35 30 27 21 16 12 11 15 20 19 18 16 16 19 22 24 24 25 26 21 18 19 17
13 12 26 26 27 28 31 29 23 20 24 34 30 23 26 22 22 23 24 28 28 27 23 20 20 17 13 11 11 17 17 15 15 16 18 19 20 23 25 22 18 17 17 17
8 7 17 30 30 28 26 33 25 21 16 23 27 27 24 27 27 25 27 26 19 18 18 18 19 17 18 14 14 16 16 15 14 13 15 17 20 22 22 21 18 18 17 18
21 12 9 17 30 34 30 30 23 14 12 14 18 26 29 27 26 29 30 28 21 17 17 17 14 16 20 19 17 21 17 11 5 7 8 11 16 20 22 20 18 18 18 19
Wind_Direction
210 209 218 213 210 213 201 242 259 223 221 213 241 249 122 136 116 85 123 135 131 128 138 152 163 174 177 181 184 182 179 167 171 164 172 169 173 152 66 33 25 29 43 45
201 217 209 215 236 230 211 251 243 215 175 202 229 228 187 152 84 57 38 106 166 134 135 143 156 167 166 166 168 171 167 168 165 176 183 178 166 136 127 73 25 27 31 23
206 213 209 219 232 225 243 267 206 199 200 230 248 232 219 215 206 212 247 23 157 144 137 137 143 152 157 158 157 160 162 163 157 164 173 160 138 135 136 130 20 5 0 330
215 210 216 215 226 218 240 211 214 234 250 251 222 235 223 222 203 219 222 301 154 151 142 144 143 141 139 141 146 151 155 156 156 154 149 148 149 149 151 157 331 346 329 330
209 213 211 218 214 213 222 264 279 243 253 263 236 219 241 212 219 214 211 203 160 160 143 137 143 142 138 137 134 139 145 144 142 138 144 157 165 177 167 169 333 339 325 341
217 211 214 220 206 221 216 235 262 252 255 228 218 207 220 198 222 188 180 172 176 171 161 149 152 157 155 154 152 149 146 146 139 142 146 144 154 171 186 199 29 337 334 350
218 220 211 213 230 230 221 234 232 239 215 217 205 208 234 233 211 195 163 175 181 174 169 168 171 168 161 151 152 146 142 138 138 143 146 147 153 169 172 42 23 353 338 335
212 226 212 209 221 230 223 222 215 224 213 251 261 234 258 245 218 186 158 148 184 177 173 162 156 157 160 153 145 146 139 140 141 139 136 127 134 131 44 343 356 349 340 347
209 223 214 215 215 227 238 227 238 206 149 290 272 293 264 216 197 192 189 191 191 188 185 178 170 157 157 154 146 144 144 150 143 145 145 127 108 31 335 338 350 340 347 1
214 224 213 218 223 226 240 245 242 224 134 223 276 301 18 187 193 194 194 197 183 178 178 185 183 173 168 173 172 176 174 168 176 168 153 118 21 350 326 338 340 338 358 8
209 216 222 217 224 230 230 240 242 226 227 172 206 276 235 222 200 197 200 196 186 188 184 174 183 182 173 185 194 196 202 203 196 188 196 190 277 292 308 321 332 347 7 5
211 227 230 223 228 227 235 236 240 219 192 221 242 254 177 202 218 209 207 204 201 197 192 179 174 174 185 197 196 200 207 223 231 221 211 219 264 277 286 295 321 342 360 360
208 218 226 236 228 228 235 236 236 234 234 245 243 260 227 245 252 212 216 210 204 206 202 193 187 183 188 195 200 209 220 226 230 231 225 234 253 270 282 285 295 302 328 350
212 216 216 212 222 218 228 233 231 230 226 234 247 262 254 276 219 207 211 208 205 208 215 205 198 203 225 222 199 186 195 203 213 220 227 235 249 268 279 274 268 281 312 341
213 217 222 226 220 212 235 229 219 220 233 233 245 251 253 272 219 205 203 202 205 213 220 221 214 210 222 222 222 224 210 220 231 238 246 251 257 268 272 270 269 272 313 335
212 216 218 226 232 240 245 242 223 227 238 234 241 246 229 289 196 196 199 194 202 207 219 220 224 222 222 224 231 248 240 237 246 258 265 267 268 271 273 275 273 273 294 329
214 213 213 217 227 230 246 232 242 227 227 227 231 230 219 251 189 197 203 222 230 216 226 230 222 226 230 229 235 248 264 260 259 268 275 277 275 274 278 277 270 262 284 321
214 211 212 212 220 226 239 232 235 239 223 225 229 228 234 241 223 210 232 232 222 218 217 229 233 228 231 236 241 245 259 271 264 267 272 275 278 277 277 272 264 257 276 311
217 202 203 199 211 227 229 214 224 226 223 228 227 227 234 234 199 213 218 219 232 233 213 211 218 223 233 255 258 259 266 264 267 270 272 275 277 275 274 266 261 258 272 308
207 207 205 200 216 212 224 224 206 195 234 226 226 224 225 226 233 226 217 210 223 219 214 213 223 211 232 243 250 262 269 270 270 269 272 276 274 271 269 259 261 260 273 305
201 197 202 201 214 223 227 226 217 224 228 233 228 226 226 224 219 209 216 222 222 214 211 211 210 219 237 236 247 271 274 281 272 269 272 269 269 268 260 258 260 265 279 303
190 187 196 198 201 210 217 226 221 233 220 209 239 227 237 230 234 237 236 223 214 212 210 213 220 223 231 233 268 280 278 274 265 261 262 266 267 263 258 258 259 269 285 304
191 198 197 204 203 211 220 225 223 233 233 226 234 209 203 210 225 225 221 201 204 211 213 215 219 222 224 228 252 265 265 256 245 248 258 262 264 259 257 256 261 276 291 305
134 168 194 188 198 202 211 225 225 230 236 242 243 236 233 205 193 186 185 186 193 201 217 221 222 226 223 227 250 261 238 229 241 251 261 267 264 255 254 256 263 276 284 301
42 144 164 188 166 164 190 224 215 218 219 233 234 227 223 227 227 232 234 235 231 233 228 233 230 229 238 253 260 240 227 236 251 270 275 271 263 253 251 255 267 276 288 300
54 55 157 166 195 202 191 199 193 175 171 188 211 212 217 224 233 237 242 242 236 238 243 243 253 255 251 245 259 229 225 226 252 292 298 290 264 251 251 258 267 278 287 295
Height
3174 3177 3178 3181 3183 3184 3186 3187 3187 3189 3190 3191 3191 3192 3192 3191 3192 3193 3193 3191 3191 3191 3192 3193 3196 3200 3202 3204 3209 3212 3215 3217 3220 3222 3226 3228 3230 3230 3231 3230 3230 3229 3227 3226
3168 3168 3174 3179 3180 3181 3182 3182 3183 3188 3189 3191 3191 3195 3193 3193 3191 3193 3194 3193 3193 3192 3192 3193 3196 3199 3202 3205 3208 3211 3214 3217 3220 3222 3225 3228 3229 3230 3230 3230 3230 3230 3229 3228
3161 3165 3172 3176 3180 3178 3181 3179 3181 3185 3190 3191 3192 3194 3192 3192 3191 3192 3194 3195 3196 3195 3194 3194 3196 3199 3201 3205 3208 3211 3214 3217 3220 3222 3224 3227 3229 3230 3230 3231 3230 3229 3228 3227
3159 3164 3167 3172 3178 3181 3178 3176 3179 3182 3186 3187 3190 3191 3187 3188 3188 3188 3192 3195 3196 3195 3194 3196 3198 3201 3203 3206 3208 3211 3214 3217 3220 3222 3224 3227 3228 3230 3230 3230 3230 3229 3227 3226
3148 3156 3161 3165 3172 3176 3174 3177 3177 3180 3183 3190 3187 3190 3181 3187 3186 3186 3189 3193 3195 3196 3196 3197 3199 3203 3205 3208 3209 3212 3215 3218 3221 3222 3224 3227 3228 3229 3229 3229 3229 3227 3227 3226
3148 3153 3158 3160 3168 3173 3177 3181 3175 3178 3179 3186 3179 3181 3178 3178 3176 3181 3186 3191 3193 3195 3196 3197 3201 3204 3207 3208 3211 3213 3216 3219 3220 3221 3224 3226 3227 3228 3228 3228 3228 3227 3225 3223
3143 3144 3150 3156 3162 3169 3175 3177 3179 3177 3176 3168 3171 3177 3173 3172 3175 3180 3182 3188 3192 3195 3196 3197 3199 3203 3206 3208 3211 3214 3216 3217 3219 3221 3223 3225 3226 3226 3226 3225 3225 3224 3223 3221
3136 3140 3140 3147 3152 3159 3167 3170 3171 3175 3169 3163 3168 3168 3164 3167 3173 3179 3183 3187 3190 3193 3196 3198 3200 3203 3205 3208 3210 3212 3214 3216 3218 3220 3221 3223 3224 3224 3223 3222 3221 3221 3220 3218
3129 3131 3137 3141 3148 3154 3157 3161 3164 3163 3164 3166 3165 3162 3159 3161 3169 3176 3180 3185 3187 3190 3193 3196 3199 3201 3204 3207 3209 3211 3213 3215 3217 3218 3220 3221 3221 3221 3221 3220 3220 3219 3217 3215
3126 3130 3132 3138 3146 3148 3152 3156 3158 3156 3163 3166 3162 3161 3160 3161 3165 3172 3177 3180 3183 3188 3191 3194 3197 3199 3202 3205 3208 3210 3212 3214 3215 3217 3218 3219 3219 3219 3218 3218 3217 3216 3214 3212
3123 3126 3130 3134 3134 3138 3147 3148 3151 3154 3157 3160 3165 3161 3160 3161 3163 3165 3171 3176 3180 3184 3188 3190 3194 3198 3201 3203 3206 3209 3211 3212 3214 3215 3216 3217 3217 3217 3216 3216 3215 3214 3212 3209
3114 3122 3123 3123 3130 3135 3140 3144 3147 3147 3152 3155 3156 3157 3156 3160 3163 3167 3169 3173 3177 3182 3185 3188 3192 3196 3198 3201 3204 3206 3209 3210 3212 3213 3214 3214 3214 3214 3213 3213 3212 3211 3208 3205
3109 3113 3117 3121 3126 3128 3129 3136 3140 3143 3147 3149 3154 3151 3154 3156 3158 3161 3166 3170 3174 3178 3183 3187 3190 3192 3195 3198 3201 3203 3205 3208 3209 3210 3211 3211 3210 3210 3210 3210 3209 3207 3205 3202
3103 3105 3107 3109 3112 3121 3125 3130 3134 3138 3140 3144 3146 3146 3147 3149 3149 3154 3160 3165 3170 3175 3179 3184 3187 3190 3193 3196 3199 3200 3202 3204 3205 3206 3206 3206 3207 3207 3207 3206 3205 3204 3202 3200
3094 3096 3103 3107 3111 3117 3121 3125 3128 3131 3135 3138 3143 3145 3144 3145 3146 3151 3156 3161 3166 3171 3175 3179 3183 3186 3190 3192 3195 3198 3199 3200 3202 3202 3203 3203 3204 3204 3203 3201 3200 3200 3199 3197
3084 3088 3097 3102 3108 3113 3117 3119 3122 3126 3130 3134 3138 3140 3142 3143 3146 3150 3154 3157 3161 3165 3170 3174 3177 3182 3185 3188 3191 3193 3196 3198 3198 3199 3200 3200 3200 3199 3197 3196 3197 3196 3196 3194
3076 3082 3089 3093 3102 3107 3108 3109 3114 3119 3122 3127 3129 3134 3138 3142 3145 3148 3152 3156 3159 3162 3165 3169 3171 3175 3179 3183 3186 3189 3192 3194 3194 3195 3195 3195 3195 3194 3193 3192 3193 3192 3192 3191
3066 3074 3081 3088 3096 3097 3095 3103 3108 3109 3114 3118 3123 3127 3134 3139 3143 3145 3148 3150 3154 3157 3161 3164 3167 3171 3175 3179 3181 3184 3186 3187 3188 3189 3189 3189 3190 3189 3188 3188 3188 3188 3188 3187
3057 3066 3071 3078 3082 3088 3092 3098 3102 3101 3105 3113 3117 3122 3129 3135 3137 3139 3144 3148 3151 3154 3158 3162 3165 3168 3170 3173 3175 3178 3180 3181 3181 3182 3182 3183 3184 3183 3183 3184 3184 3184 3185 3183
3050 3057 3066 3071 3073 3075 3081 3091 3098 3100 3101 3108 3111 3117 3123 3128 3130 3134 3138 3141 3146 3150 3154 3157 3159 3162 3166 3168 3171 3173 3173 3174 3175 3176 3177 3179 3178 3178 3178 3179 3179 3180 3180 3179
3041 3049 3053 3060 3065 3070 3077 3087 3094 3097 3102 3102 3105 3109 3116 3119 3125 3130 3134 3137 3142 3145 3149 3152 3156 3158 3161 3163 3165 3168 3169 3169 3170 3171 3172 3173 3173 3172 3173 3175 3175 3175 3176 3175
3036 3040 3046 3054 3059 3065 3072 3081 3085 3093 3096 3098 3100 3104 3107 3113 3117 3122 3127 3131 3136 3142 3146 3149 3150 3153 3156 3157 3160 3163 3164 3164 3164 3165 3166 3167 3168 3167 3169 3170 3171 3171 3170 3170
3037 3038 3041 3049 3053 3060 3069 3075 3079 3085 3090 3094 3098 3101 3103 3106 3110 3115 3119 3125 3131 3137 3141 3144 3148 3150 3151 3152 3155 3157 3158 3158 3159 3160 3161 3162 3162 3163 3164 3165 3166 3166 3165 3164
3032 3034 3039 3046 3052 3056 3065 3071 3075 3080 3084 3088 3093 3098 3101 3103 3107 3112 3117 3121 3126 3131 3136 3140 3143 3144 3146 3147 3149 3151 3153 3154 3155 3155 3155 3155 3156 3157 3159 3161 3161 3161 3159 3156
3028 3030 3033 3040 3047 3053 3059 3068 3072 3076 3079 3082 3087 3092 3097 3100 3103 3108 3113 3116 3121 3126 3130 3133 3136 3138 3141 3142 3143 3145 3148 3149 3149 3150 3150 3150 3151 3152 3154 3155 3156 3155 3154 3152
3029 3028 3031 3038 3045 3050 3057 3064 3068 3071 3074 3077 3082 3086 3091 3095 3099 3104 3108 3111 3115 3120 3124 3127 3129 3132 3135 3137 3138 3140 3142 3143 3144 3144 3145 3145 3146 3147 3148 3149 3150 3150 3149 3147